Year,Month,Day,Hour,Minute,Value (Times are PST for temperature in C)
2006,10,02,00,00,7.40
2006,10,02,00,01,7.40
2006,10,02,00,02,7.40
2006,10,02,00,03,7.40
2006,10,02,00,04,7.40
2006,10,02,00,05,7.30
2006,10,02,00,06,7.30
2006,10,02,00,07,7.30
2006,10,02,00,08,7.30
2006,10,02,00,09,7.30
2006,10,02,00,10,7.30
2006,10,02,00,11,7.30
2006,10,02,00,12,7.30
2006,10,02,00,13,7.30
2006,10,02,00,14,7.30
2006,10,02,00,15,7.20
2006,10,02,00,16,7.20
2006,10,02,00,17,7.20
2006,10,02,00,18,7.20
2006,10,02,00,19,7.20
2006,10,02,00,20,7.20
2006,10,02,00,21,7.20
2006,10,02,00,22,7.20
2006,10,02,00,23,7.20
2006,10,02,00,24,7.20
2006,10,02,00,25,7.10
2006,10,02,00,26,7.10
2006,10,02,00,27,7.10
2006,10,02,00,28,7.10
2006,10,02,00,29,7.10
2006,10,02,00,30,7.10
2006,10,02,00,31,7.10
2006,10,02,00,32,7.10
2006,10,02,00,33,7.10
2006,10,02,00,34,7.10
2006,10,02,00,35,7.10
2006,10,02,00,36,7.10
2006,10,02,00,37,7.10
2006,10,02,00,38,7.10
2006,10,02,00,39,7.10
2006,10,02,00,40,7.10
2006,10,02,00,41,7.10
2006,10,02,00,42,7.20
2006,10,02,00,43,7.10
2006,10,02,00,44,7.10
2006,10,02,00,45,7.10
2006,10,02,00,46,7.10
2006,10,02,00,47,7.10
2006,10,02,00,48,7.10
2006,10,02,00,49,7.10
2006,10,02,00,50,7.10
2006,10,02,00,51,7.10
2006,10,02,00,52,7.10
2006,10,02,00,53,7.10
2006,10,02,00,54,7.00
2006,10,02,00,55,7.00
2006,10,02,00,56,7.00
2006,10,02,00,57,7.00
2006,10,02,00,58,7.00
2006,10,02,00,59,7.00
2006,10,02,01,00,7.00
2006,10,02,01,01,6.90
2006,10,02,01,02,6.90
2006,10,02,01,03,6.90
2006,10,02,01,04,6.90
2006,10,02,01,05,6.90
2006,10,02,01,06,6.90
2006,10,02,01,07,6.90
2006,10,02,01,08,6.90
2006,10,02,01,09,6.80
2006,10,02,01,10,6.80
2006,10,02,01,11,6.80
2006,10,02,01,12,6.80
2006,10,02,01,13,6.80
2006,10,02,01,14,6.80
2006,10,02,01,15,6.80
2006,10,02,01,16,6.80
2006,10,02,01,17,6.80
2006,10,02,01,18,6.80
2006,10,02,01,19,6.80
2006,10,02,01,20,6.80
2006,10,02,01,21,6.80
2006,10,02,01,22,6.80
2006,10,02,01,23,6.80
2006,10,02,01,24,6.70
2006,10,02,01,25,6.70
2006,10,02,01,26,6.70
2006,10,02,01,27,6.70
2006,10,02,01,28,6.70
2006,10,02,01,29,6.60
2006,10,02,01,30,6.60
2006,10,02,01,31,6.60
2006,10,02,01,32,6.60
2006,10,02,01,33,6.60
2006,10,02,01,34,6.60
2006,10,02,01,35,6.60
2006,10,02,01,36,6.60
2006,10,02,01,37,6.60
2006,10,02,01,38,6.60
2006,10,02,01,39,6.60
2006,10,02,01,40,6.60
2006,10,02,01,41,6.60
2006,10,02,01,42,6.60
2006,10,02,01,43,6.60
2006,10,02,01,44,6.60
2006,10,02,01,45,6.60
2006,10,02,01,46,6.60
2006,10,02,01,47,6.60
2006,10,02,01,48,6.60
2006,10,02,01,49,6.60
2006,10,02,01,50,6.60
2006,10,02,01,51,6.60
2006,10,02,01,52,6.60
2006,10,02,01,53,6.60
2006,10,02,01,54,6.60
2006,10,02,01,55,6.60
2006,10,02,01,56,6.60
2006,10,02,01,57,6.60
2006,10,02,01,58,6.60
2006,10,02,01,59,6.60
2006,10,02,02,00,6.40
2006,10,02,02,01,6.40
2006,10,02,02,02,6.40
2006,10,02,02,03,6.40
2006,10,02,02,04,6.40
2006,10,02,02,05,6.40
2006,10,02,02,06,6.40
2006,10,02,02,07,6.40
2006,10,02,02,08,6.40
2006,10,02,02,09,6.40
2006,10,02,02,10,6.40
2006,10,02,02,11,6.40
2006,10,02,02,12,6.40
2006,10,02,02,13,6.40
2006,10,02,02,14,6.40
2006,10,02,02,15,6.40
2006,10,02,02,16,6.40
2006,10,02,02,17,6.40
2006,10,02,02,18,6.40
2006,10,02,02,19,6.40
2006,10,02,02,20,6.40
2006,10,02,02,21,6.30
2006,10,02,02,22,6.30
2006,10,02,02,23,6.30
2006,10,02,02,24,6.30
2006,10,02,02,25,6.30
2006,10,02,02,26,6.30
2006,10,02,02,27,6.30
2006,10,02,02,28,6.30
2006,10,02,02,29,6.30
2006,10,02,02,30,6.30
2006,10,02,02,31,6.30
2006,10,02,02,32,6.30
2006,10,02,02,33,6.30
2006,10,02,02,34,6.30
2006,10,02,02,35,6.30
2006,10,02,02,36,6.30
2006,10,02,02,37,6.30
2006,10,02,02,38,6.20
2006,10,02,02,39,6.20
2006,10,02,02,40,6.20
2006,10,02,02,41,6.20
2006,10,02,02,42,6.20
2006,10,02,02,43,6.20
2006,10,02,02,44,6.20
2006,10,02,02,45,6.20
2006,10,02,02,46,6.20
2006,10,02,02,47,6.20
2006,10,02,02,48,6.20
2006,10,02,02,49,6.20
2006,10,02,02,50,6.20
2006,10,02,02,51,6.20
2006,10,02,02,52,6.20
2006,10,02,02,53,6.20
2006,10,02,02,54,6.20
2006,10,02,02,55,6.20
2006,10,02,02,56,6.20
2006,10,02,02,57,6.20
2006,10,02,02,58,6.20
2006,10,02,02,59,6.20
2006,10,02,03,00,6.20
2006,10,02,03,01,6.20
2006,10,02,03,02,6.20
2006,10,02,03,03,6.20
2006,10,02,03,04,6.20
2006,10,02,03,05,6.20
2006,10,02,03,06,6.20
2006,10,02,03,07,6.20
2006,10,02,03,08,6.20
2006,10,02,03,09,6.20
2006,10,02,03,10,6.20
2006,10,02,03,11,6.20
2006,10,02,03,12,6.20
2006,10,02,03,13,6.20
2006,10,02,03,14,6.10
2006,10,02,03,15,6.10
2006,10,02,03,16,6.10
2006,10,02,03,17,6.10
2006,10,02,03,18,6.00
2006,10,02,03,19,6.00
2006,10,02,03,20,6.00
2006,10,02,03,21,6.00
2006,10,02,03,22,6.00
2006,10,02,03,23,6.00
2006,10,02,03,24,6.00
2006,10,02,03,25,5.90
2006,10,02,03,26,5.90
2006,10,02,03,27,5.90
2006,10,02,03,28,5.90
2006,10,02,03,29,5.90
2006,10,02,03,30,5.90
2006,10,02,03,31,5.90
2006,10,02,03,32,5.90
2006,10,02,03,33,5.90
2006,10,02,03,34,5.90
2006,10,02,03,35,5.90
2006,10,02,03,36,5.90
2006,10,02,03,37,5.90
2006,10,02,03,38,5.90
2006,10,02,03,39,5.90
2006,10,02,03,40,5.90
2006,10,02,03,41,5.90
2006,10,02,03,42,5.90
2006,10,02,03,43,5.90
2006,10,02,03,44,5.80
2006,10,02,03,45,5.80
2006,10,02,03,46,5.80
2006,10,02,03,47,5.80
2006,10,02,03,48,5.80
2006,10,02,03,49,5.80
2006,10,02,03,50,5.80
2006,10,02,03,51,5.80
2006,10,02,03,52,5.80
2006,10,02,03,53,5.70
2006,10,02,03,54,5.70
2006,10,02,03,55,5.70
2006,10,02,03,56,5.70
2006,10,02,03,57,5.70
2006,10,02,03,58,5.70
2006,10,02,03,59,5.70
2006,10,02,04,00,5.70
2006,10,02,04,01,5.70
2006,10,02,04,02,5.70
2006,10,02,04,03,5.70
2006,10,02,04,04,5.70
2006,10,02,04,05,5.70
2006,10,02,04,06,5.70
2006,10,02,04,07,5.70
2006,10,02,04,08,5.70
2006,10,02,04,09,5.70
2006,10,02,04,10,5.70
2006,10,02,04,11,5.70
2006,10,02,04,12,5.70
2006,10,02,04,13,5.70
2006,10,02,04,14,5.70
2006,10,02,04,15,5.70
2006,10,02,04,16,5.70
2006,10,02,04,17,5.70
2006,10,02,04,18,5.70
2006,10,02,04,19,5.70
2006,10,02,04,20,5.70
2006,10,02,04,21,5.70
2006,10,02,04,22,5.70
2006,10,02,04,23,5.70
2006,10,02,04,24,5.70
2006,10,02,04,25,5.70
2006,10,02,04,26,5.70
2006,10,02,04,27,5.70
2006,10,02,04,28,5.70
2006,10,02,04,29,5.70
2006,10,02,04,30,5.70
2006,10,02,04,31,5.70
2006,10,02,04,32,5.70
2006,10,02,04,33,5.70
2006,10,02,04,34,5.70
2006,10,02,04,35,5.60
2006,10,02,04,36,5.60
2006,10,02,04,37,5.60
2006,10,02,04,38,5.60
2006,10,02,04,39,5.60
2006,10,02,04,40,5.60
2006,10,02,04,41,5.60
2006,10,02,04,42,5.60
2006,10,02,04,43,5.60
2006,10,02,04,44,5.60
2006,10,02,04,45,5.60
2006,10,02,04,46,5.60
2006,10,02,04,47,5.60
2006,10,02,04,48,5.60
2006,10,02,04,49,5.60
2006,10,02,04,50,5.60
2006,10,02,04,51,5.60
2006,10,02,04,52,5.60
2006,10,02,04,53,5.60
2006,10,02,04,54,5.60
2006,10,02,04,55,5.60
2006,10,02,04,56,5.60
2006,10,02,04,57,5.60
2006,10,02,04,58,5.60
2006,10,02,04,59,5.60
2006,10,02,05,00,5.60
2006,10,02,05,01,5.60
2006,10,02,05,02,5.60
2006,10,02,05,03,5.60
2006,10,02,05,04,5.60
2006,10,02,05,05,5.60
2006,10,02,05,06,5.60
2006,10,02,05,07,5.60
2006,10,02,05,08,5.60
2006,10,02,05,09,5.60
2006,10,02,05,10,5.60
2006,10,02,05,11,5.50
2006,10,02,05,12,5.50
2006,10,02,05,13,5.50
2006,10,02,05,14,5.50
2006,10,02,05,15,5.50
2006,10,02,05,16,5.50
2006,10,02,05,17,5.50
2006,10,02,05,18,5.50
2006,10,02,05,19,5.50
2006,10,02,05,20,5.50
2006,10,02,05,21,5.50
2006,10,02,05,22,5.50
2006,10,02,05,23,5.50
2006,10,02,05,24,5.40
2006,10,02,05,25,5.40
2006,10,02,05,26,5.40
2006,10,02,05,27,5.40
2006,10,02,05,28,5.40
2006,10,02,05,29,5.40
2006,10,02,05,30,5.40
2006,10,02,05,31,5.40
2006,10,02,05,32,5.40
2006,10,02,05,33,5.40
2006,10,02,05,34,5.40
2006,10,02,05,35,5.30
2006,10,02,05,36,5.30
2006,10,02,05,37,5.30
2006,10,02,05,38,5.30
2006,10,02,05,39,5.30
2006,10,02,05,40,5.30
2006,10,02,05,41,5.30
2006,10,02,05,42,5.30
2006,10,02,05,43,5.30
2006,10,02,05,44,5.20
2006,10,02,05,45,5.20
2006,10,02,05,46,5.20
2006,10,02,05,47,5.20
2006,10,02,05,48,5.20
2006,10,02,05,49,5.20
2006,10,02,05,50,5.10
2006,10,02,05,51,5.10
2006,10,02,05,52,5.10
2006,10,02,05,53,5.10
2006,10,02,05,54,5.10
2006,10,02,05,55,5.10
2006,10,02,05,56,5.10
2006,10,02,05,57,5.10
2006,10,02,05,58,5.10
2006,10,02,05,59,5.10
2006,10,02,06,00,5.10
2006,10,02,06,01,5.10
2006,10,02,06,02,5.10
2006,10,02,06,03,5.10
2006,10,02,06,04,5.10
2006,10,02,06,05,5.00
2006,10,02,06,06,4.90
2006,10,02,06,07,5.00
2006,10,02,06,08,5.10
2006,10,02,06,09,5.10
2006,10,02,06,10,5.10
2006,10,02,06,11,5.10
2006,10,02,06,12,5.10
2006,10,02,06,13,5.10
2006,10,02,06,14,5.10
2006,10,02,06,15,5.10
2006,10,02,06,16,5.10
2006,10,02,06,17,5.10
2006,10,02,06,18,5.10
2006,10,02,06,19,5.10
2006,10,02,06,20,5.10
2006,10,02,06,21,5.10
2006,10,02,06,22,5.10
2006,10,02,06,23,5.10
2006,10,02,06,24,5.10
2006,10,02,06,25,5.10
2006,10,02,06,26,5.10
2006,10,02,06,27,5.10
2006,10,02,06,28,5.10
2006,10,02,06,29,5.10
2006,10,02,06,30,5.10
2006,10,02,06,31,5.10
2006,10,02,06,32,5.10
2006,10,02,06,33,5.10
2006,10,02,06,34,5.10
2006,10,02,06,35,5.10
2006,10,02,06,36,5.10
2006,10,02,06,37,5.10
2006,10,02,06,38,5.10
2006,10,02,06,39,5.10
2006,10,02,06,40,5.10
2006,10,02,06,41,5.10
2006,10,02,06,42,5.10
2006,10,02,06,43,5.10
2006,10,02,06,44,5.10
2006,10,02,06,45,5.20
2006,10,02,06,46,5.20
2006,10,02,06,47,5.20
2006,10,02,06,48,5.20
2006,10,02,06,49,5.20
2006,10,02,06,50,5.20
2006,10,02,06,51,5.20
2006,10,02,06,52,5.20
2006,10,02,06,53,5.20
2006,10,02,06,54,5.20
2006,10,02,06,55,5.30
2006,10,02,06,56,5.30
2006,10,02,06,57,5.30
2006,10,02,06,58,5.30
2006,10,02,06,59,5.30
2006,10,02,07,00,5.30
2006,10,02,07,01,5.30
2006,10,02,07,02,5.30
2006,10,02,07,03,5.30
2006,10,02,07,04,5.30
2006,10,02,07,05,5.30
2006,10,02,07,06,5.30
2006,10,02,07,07,5.30
2006,10,02,07,08,5.30
2006,10,02,07,09,5.30
2006,10,02,07,10,5.30
2006,10,02,07,11,5.30
2006,10,02,07,12,5.30
2006,10,02,07,13,5.30
2006,10,02,07,14,5.30
2006,10,02,07,15,5.30
2006,10,02,07,16,5.30
2006,10,02,07,17,5.30
2006,10,02,07,18,5.30
2006,10,02,07,19,5.40
2006,10,02,07,20,5.40
2006,10,02,07,21,5.40
2006,10,02,07,22,5.40
2006,10,02,07,23,5.50
2006,10,02,07,24,5.50
2006,10,02,07,25,5.50
2006,10,02,07,26,5.50
2006,10,02,07,27,5.50
2006,10,02,07,28,5.60
2006,10,02,07,29,5.60
2006,10,02,07,30,5.60
2006,10,02,07,31,5.60
2006,10,02,07,32,5.60
2006,10,02,07,33,5.60
2006,10,02,07,34,5.60
2006,10,02,07,35,5.60
2006,10,02,07,36,5.60
2006,10,02,07,37,5.60
2006,10,02,07,38,5.60
2006,10,02,07,39,5.60
2006,10,02,07,40,5.60
2006,10,02,07,41,5.60
2006,10,02,07,42,5.70
2006,10,02,07,43,5.70
2006,10,02,07,44,5.70
2006,10,02,07,45,5.70
2006,10,02,07,46,5.70
2006,10,02,07,47,5.70
2006,10,02,07,48,5.70
2006,10,02,07,49,5.70
2006,10,02,07,50,5.70
2006,10,02,07,51,5.80
2006,10,02,07,52,5.80
2006,10,02,07,53,5.80
2006,10,02,07,54,5.90
2006,10,02,07,55,5.90
2006,10,02,07,56,5.90
2006,10,02,07,57,6.00
2006,10,02,07,58,6.00
2006,10,02,07,59,6.00
2006,10,02,08,00,6.00
2006,10,02,08,01,6.00
2006,10,02,08,02,6.10
2006,10,02,08,03,6.10
2006,10,02,08,04,6.10
2006,10,02,08,05,6.20
2006,10,02,08,06,6.20
2006,10,02,08,07,6.20
2006,10,02,08,08,6.20
2006,10,02,08,09,6.20
2006,10,02,08,10,6.20
2006,10,02,08,11,6.20
2006,10,02,08,12,6.20
2006,10,02,08,13,6.20
2006,10,02,08,14,6.20
2006,10,02,08,15,6.30
2006,10,02,08,16,6.30
2006,10,02,08,17,6.30
2006,10,02,08,18,6.30
2006,10,02,08,19,6.30
2006,10,02,08,20,6.40
2006,10,02,08,21,6.40
2006,10,02,08,22,6.40
2006,10,02,08,23,6.40
2006,10,02,08,24,6.40
2006,10,02,08,25,6.40
2006,10,02,08,26,6.40
2006,10,02,08,27,6.60
2006,10,02,08,28,6.60
2006,10,02,08,29,6.60
2006,10,02,08,30,6.60
2006,10,02,08,31,6.60
2006,10,02,08,32,6.60
2006,10,02,08,33,6.60
2006,10,02,08,34,6.70
2006,10,02,08,35,6.70
2006,10,02,08,36,6.70
2006,10,02,08,37,6.80
2006,10,02,08,38,6.80
2006,10,02,08,39,6.80
2006,10,02,08,40,6.80
2006,10,02,08,41,6.80
2006,10,02,08,42,6.90
2006,10,02,08,43,6.90
2006,10,02,08,44,7.00
2006,10,02,08,45,7.00
2006,10,02,08,46,7.00
2006,10,02,08,47,7.10
2006,10,02,08,48,7.10
2006,10,02,08,49,7.10
2006,10,02,08,50,7.20
2006,10,02,08,51,7.20
2006,10,02,08,52,7.20
2006,10,02,08,53,7.30
2006,10,02,08,54,7.30
2006,10,02,08,55,7.30
2006,10,02,08,56,7.30
2006,10,02,08,57,7.40
2006,10,02,08,58,7.40
2006,10,02,08,59,7.50
2006,10,02,09,00,7.50
2006,10,02,09,01,7.60
2006,10,02,09,02,7.60
2006,10,02,09,03,7.60
2006,10,02,09,04,7.70
2006,10,02,09,05,7.70
2006,10,02,09,06,7.80
2006,10,02,09,07,7.80
2006,10,02,09,08,7.80
2006,10,02,09,09,7.80
2006,10,02,09,10,7.80
2006,10,02,09,11,7.90
2006,10,02,09,12,7.90
2006,10,02,09,13,8.00
2006,10,02,09,14,8.00
2006,10,02,09,15,8.00
2006,10,02,09,16,8.10
2006,10,02,09,17,8.20
2006,10,02,09,18,8.20
2006,10,02,09,19,8.30
2006,10,02,09,20,8.30
2006,10,02,09,21,8.40
2006,10,02,09,22,8.50
2006,10,02,09,23,8.60
2006,10,02,09,24,8.70
2006,10,02,09,25,8.70
2006,10,02,09,26,8.80
2006,10,02,09,27,8.90
2006,10,02,09,28,8.90
2006,10,02,09,29,9.00
2006,10,02,09,30,9.10
2006,10,02,09,31,9.10
2006,10,02,09,32,9.20
2006,10,02,09,33,9.20
2006,10,02,09,34,9.30
2006,10,02,09,35,9.40
2006,10,02,09,36,9.50
2006,10,02,09,37,9.60
2006,10,02,09,38,9.60
2006,10,02,09,39,9.70
2006,10,02,09,40,9.70
2006,10,02,09,41,9.80
2006,10,02,09,42,9.90
2006,10,02,09,43,9.90
2006,10,02,09,44,9.90
2006,10,02,09,45,10.00
2006,10,02,09,46,10.10
2006,10,02,09,47,10.20
2006,10,02,09,48,10.30
2006,10,02,09,49,10.30
2006,10,02,09,50,10.40
2006,10,02,09,51,10.40
2006,10,02,09,52,10.50
2006,10,02,09,53,10.60
2006,10,02,09,54,10.60
2006,10,02,09,55,10.70
2006,10,02,09,56,10.80
2006,10,02,09,57,10.80
2006,10,02,09,58,10.80
2006,10,02,09,59,10.90
2006,10,02,10,00,10.90
2006,10,02,10,01,10.90
2006,10,02,10,02,11.00
2006,10,02,10,03,11.10
2006,10,02,10,04,11.10
2006,10,02,10,05,11.20
2006,10,02,10,06,11.30
2006,10,02,10,07,11.40
2006,10,02,10,08,11.40
2006,10,02,10,09,11.40
2006,10,02,10,10,11.60
2006,10,02,10,11,11.60
2006,10,02,10,12,11.60
2006,10,02,10,13,11.70
2006,10,02,10,14,11.70
2006,10,02,10,15,11.80
2006,10,02,10,16,11.80
2006,10,02,10,17,11.80
2006,10,02,10,18,11.80
2006,10,02,10,19,11.80
2006,10,02,10,20,11.80
2006,10,02,10,21,11.80
2006,10,02,10,22,11.80
2006,10,02,10,23,11.80
2006,10,02,10,24,11.90
2006,10,02,10,25,11.90
2006,10,02,10,26,11.90
2006,10,02,10,27,12.00
2006,10,02,10,28,12.00
2006,10,02,10,29,12.10
2006,10,02,10,30,12.20
2006,10,02,10,31,12.20
2006,10,02,10,32,12.30
2006,10,02,10,33,12.40
2006,10,02,10,34,12.50
2006,10,02,10,35,12.60
2006,10,02,10,36,12.60
2006,10,02,10,37,12.60
2006,10,02,10,38,12.70
2006,10,02,10,39,12.70
2006,10,02,10,40,12.70
2006,10,02,10,41,12.70
2006,10,02,10,42,12.70
2006,10,02,10,43,12.80
2006,10,02,10,44,12.80
2006,10,02,10,45,12.80
2006,10,02,10,46,12.80
2006,10,02,10,47,12.90
2006,10,02,10,48,13.00
2006,10,02,10,49,13.00
2006,10,02,10,50,13.10
2006,10,02,10,51,13.20
2006,10,02,10,52,13.30
2006,10,02,10,53,13.40
2006,10,02,10,54,13.60
2006,10,02,10,55,13.70
2006,10,02,10,56,13.70
2006,10,02,10,57,13.70
2006,10,02,10,58,13.80
2006,10,02,10,59,13.90
2006,10,02,11,00,14.00
2006,10,02,11,01,14.10
2006,10,02,11,02,14.20
2006,10,02,11,03,14.20
2006,10,02,11,04,14.20
2006,10,02,11,05,14.10
2006,10,02,11,06,14.10
2006,10,02,11,07,14.20
2006,10,02,11,08,14.20
2006,10,02,11,09,14.20
2006,10,02,11,10,14.30
2006,10,02,11,11,14.40
2006,10,02,11,12,14.40
2006,10,02,11,13,14.50
2006,10,02,11,14,14.50
2006,10,02,11,15,14.50
2006,10,02,11,16,14.50
2006,10,02,11,17,14.30
2006,10,02,11,18,14.30
2006,10,02,11,19,14.30
2006,10,02,11,20,14.30
2006,10,02,11,21,14.50
2006,10,02,11,22,14.60
2006,10,02,11,23,14.70
2006,10,02,11,24,14.80
2006,10,02,11,25,14.80
2006,10,02,11,26,14.90
2006,10,02,11,27,14.90
2006,10,02,11,28,15.00
2006,10,02,11,29,15.10
2006,10,02,11,30,15.10
2006,10,02,11,31,15.00
2006,10,02,11,32,14.90
2006,10,02,11,33,14.90
2006,10,02,11,34,14.90
2006,10,02,11,35,14.80
2006,10,02,11,36,14.70
2006,10,02,11,37,14.70
2006,10,02,11,38,14.60
2006,10,02,11,39,14.60
2006,10,02,11,40,14.60
2006,10,02,11,41,14.60
2006,10,02,11,42,14.70
2006,10,02,11,43,14.80
2006,10,02,11,44,14.80
2006,10,02,11,45,14.90
2006,10,02,11,46,15.00
2006,10,02,11,47,14.90
2006,10,02,11,48,14.90
2006,10,02,11,49,15.00
2006,10,02,11,50,15.00
2006,10,02,11,51,15.10
2006,10,02,11,52,15.20
2006,10,02,11,53,15.30
2006,10,02,11,54,15.30
2006,10,02,11,55,15.30
2006,10,02,11,56,15.40
2006,10,02,11,57,15.40
2006,10,02,11,58,15.40
2006,10,02,11,59,15.40
2006,10,02,12,00,15.40
2006,10,02,12,01,15.50
2006,10,02,12,02,15.50
2006,10,02,12,03,15.40
2006,10,02,12,04,15.40
2006,10,02,12,05,15.40
2006,10,02,12,06,15.40
2006,10,02,12,07,15.40
2006,10,02,12,08,15.30
2006,10,02,12,09,15.30
2006,10,02,12,10,15.20
2006,10,02,12,11,15.10
2006,10,02,12,12,15.00
2006,10,02,12,13,14.90
2006,10,02,12,14,14.80
2006,10,02,12,15,14.90
2006,10,02,12,16,15.00
2006,10,02,12,17,15.10
2006,10,02,12,18,15.10
2006,10,02,12,19,15.00
2006,10,02,12,20,14.90
2006,10,02,12,21,14.80
2006,10,02,12,22,14.80
2006,10,02,12,23,14.80
2006,10,02,12,24,14.90
2006,10,02,12,25,15.00
2006,10,02,12,26,15.10
2006,10,02,12,27,15.20
2006,10,02,12,28,15.40
2006,10,02,12,29,15.60
2006,10,02,12,30,15.70
2006,10,02,12,31,15.70
2006,10,02,12,32,15.70
2006,10,02,12,33,15.60
2006,10,02,12,34,15.60
2006,10,02,12,35,15.50
2006,10,02,12,36,15.30
2006,10,02,12,37,15.10
2006,10,02,12,38,14.90
2006,10,02,12,39,14.90
2006,10,02,12,40,14.90
2006,10,02,12,41,15.00
2006,10,02,12,42,15.10
2006,10,02,12,43,15.00
2006,10,02,12,44,15.00
2006,10,02,12,45,15.00
2006,10,02,12,46,15.00
2006,10,02,12,47,15.00
2006,10,02,12,48,14.90
2006,10,02,12,49,14.80
2006,10,02,12,50,14.60
2006,10,02,12,51,14.40
2006,10,02,12,52,14.30
2006,10,02,12,53,14.20
2006,10,02,12,54,14.20
2006,10,02,12,55,14.40
2006,10,02,12,56,14.50
2006,10,02,12,57,14.60
2006,10,02,12,58,14.70
2006,10,02,12,59,14.70
2006,10,02,13,00,14.60
2006,10,02,13,01,14.60
2006,10,02,13,02,14.70
2006,10,02,13,03,14.80
2006,10,02,13,04,14.80
2006,10,02,13,05,14.70
2006,10,02,13,06,14.60
2006,10,02,13,07,14.60
2006,10,02,13,08,14.50
2006,10,02,13,09,14.40
2006,10,02,13,10,14.30
2006,10,02,13,11,14.30
2006,10,02,13,12,14.20
2006,10,02,13,13,14.20
2006,10,02,13,14,14.20
2006,10,02,13,15,14.20
2006,10,02,13,16,14.20
2006,10,02,13,17,14.10
2006,10,02,13,18,14.20
2006,10,02,13,19,14.20
2006,10,02,13,20,14.30
2006,10,02,13,21,14.30
2006,10,02,13,22,14.30
2006,10,02,13,23,14.30
2006,10,02,13,24,14.20
2006,10,02,13,25,14.20
2006,10,02,13,26,14.20
2006,10,02,13,27,14.20
2006,10,02,13,28,14.20
2006,10,02,13,29,14.20
2006,10,02,13,30,14.20
2006,10,02,13,31,14.30
2006,10,02,13,32,14.40
2006,10,02,13,33,14.40
2006,10,02,13,34,14.40
2006,10,02,13,35,14.40
2006,10,02,13,36,14.40
2006,10,02,13,37,14.20
2006,10,02,13,38,14.10
2006,10,02,13,39,14.00
2006,10,02,13,40,14.00
2006,10,02,13,41,14.10
2006,10,02,13,42,14.10
2006,10,02,13,43,14.10
2006,10,02,13,44,14.10
2006,10,02,13,45,14.10
2006,10,02,13,46,14.20
2006,10,02,13,47,14.30
2006,10,02,13,48,14.30
2006,10,02,13,49,14.20
2006,10,02,13,50,14.10
2006,10,02,13,51,14.00
2006,10,02,13,52,14.00
2006,10,02,13,53,13.90
2006,10,02,13,54,13.90
2006,10,02,13,55,13.80
2006,10,02,13,56,13.70
2006,10,02,13,57,13.80
2006,10,02,13,58,13.80
2006,10,02,13,59,13.90
2006,10,02,14,00,13.90
2006,10,02,14,01,14.00
2006,10,02,14,02,13.90
2006,10,02,14,03,13.90
2006,10,02,14,04,13.90
2006,10,02,14,05,14.00
2006,10,02,14,06,14.10
2006,10,02,14,07,14.10
2006,10,02,14,08,14.20
2006,10,02,14,09,14.20
2006,10,02,14,10,14.20
2006,10,02,14,11,14.20
2006,10,02,14,12,14.00
2006,10,02,14,13,14.00
2006,10,02,14,14,13.90
2006,10,02,14,15,13.80
2006,10,02,14,16,13.80
2006,10,02,14,17,13.90
2006,10,02,14,18,13.90
2006,10,02,14,19,13.90
2006,10,02,14,20,13.80
2006,10,02,14,21,13.80
2006,10,02,14,22,13.80
2006,10,02,14,23,13.80
2006,10,02,14,24,13.70
2006,10,02,14,25,13.80
2006,10,02,14,26,13.80
2006,10,02,14,27,13.90
2006,10,02,14,28,13.90
2006,10,02,14,29,13.90
2006,10,02,14,30,14.00
2006,10,02,14,31,14.00
2006,10,02,14,32,14.00
2006,10,02,14,33,14.00
2006,10,02,14,34,13.90
2006,10,02,14,35,13.90
2006,10,02,14,36,14.00
2006,10,02,14,37,14.00
2006,10,02,14,38,14.00
2006,10,02,14,39,14.00
2006,10,02,14,40,13.90
2006,10,02,14,41,13.80
2006,10,02,14,42,13.90
2006,10,02,14,43,14.00
2006,10,02,14,44,14.00
2006,10,02,14,45,14.00
2006,10,02,14,46,14.00
2006,10,02,14,47,13.90
2006,10,02,14,48,13.80
2006,10,02,14,49,13.70
2006,10,02,14,50,13.70
2006,10,02,14,51,13.70
2006,10,02,14,52,13.70
2006,10,02,14,53,13.70
2006,10,02,14,54,13.70
2006,10,02,14,55,13.70
2006,10,02,14,56,13.70
2006,10,02,14,57,13.70
2006,10,02,14,58,13.70
2006,10,02,14,59,13.80
2006,10,02,15,00,13.80
2006,10,02,15,01,13.90
2006,10,02,15,02,14.00
2006,10,02,15,03,14.10
2006,10,02,15,04,14.20
2006,10,02,15,05,14.20
2006,10,02,15,06,14.20
2006,10,02,15,07,14.30
2006,10,02,15,08,14.30
2006,10,02,15,09,14.30
2006,10,02,15,10,14.30
2006,10,02,15,11,14.30
2006,10,02,15,12,14.40
2006,10,02,15,13,14.40
2006,10,02,15,14,14.40
2006,10,02,15,15,14.20
2006,10,02,15,16,14.20
2006,10,02,15,17,14.20
2006,10,02,15,18,14.20
2006,10,02,15,19,14.20
2006,10,02,15,20,14.10
2006,10,02,15,21,14.00
2006,10,02,15,22,14.00
2006,10,02,15,23,13.90
2006,10,02,15,24,13.90
2006,10,02,15,25,13.90
2006,10,02,15,26,13.90
2006,10,02,15,27,13.90
2006,10,02,15,28,14.00
2006,10,02,15,29,14.10
2006,10,02,15,30,14.10
2006,10,02,15,31,14.10
2006,10,02,15,32,14.10
2006,10,02,15,33,14.10
2006,10,02,15,34,14.00
2006,10,02,15,35,14.00
2006,10,02,15,36,14.00
2006,10,02,15,37,14.00
2006,10,02,15,38,14.00
2006,10,02,15,39,14.10
2006,10,02,15,40,14.20
2006,10,02,15,41,14.20
2006,10,02,15,42,14.20
2006,10,02,15,43,14.20
2006,10,02,15,44,14.20
2006,10,02,15,45,14.30
2006,10,02,15,46,14.30
2006,10,02,15,47,14.30
2006,10,02,15,48,14.20
2006,10,02,15,49,14.20
2006,10,02,15,50,14.20
2006,10,02,15,51,14.20
2006,10,02,15,52,14.20
2006,10,02,15,53,14.20
2006,10,02,15,54,14.00
2006,10,02,15,55,14.00
2006,10,02,15,56,14.00
2006,10,02,15,57,14.00
2006,10,02,15,58,14.00
2006,10,02,15,59,13.90
2006,10,02,16,00,13.80
2006,10,02,16,01,13.80
2006,10,02,16,02,13.80
2006,10,02,16,03,13.80
2006,10,02,16,04,13.90
2006,10,02,16,05,13.90
2006,10,02,16,06,13.90
2006,10,02,16,07,13.80
2006,10,02,16,08,13.80
2006,10,02,16,09,13.70
2006,10,02,16,10,13.70
2006,10,02,16,11,13.70
2006,10,02,16,12,13.70
2006,10,02,16,13,13.70
2006,10,02,16,14,13.70
2006,10,02,16,15,13.70
2006,10,02,16,16,13.70
2006,10,02,16,17,13.70
2006,10,02,16,18,13.70
2006,10,02,16,19,13.70
2006,10,02,16,20,13.70
2006,10,02,16,21,13.70
2006,10,02,16,22,13.70
2006,10,02,16,23,13.70
2006,10,02,16,24,13.70
2006,10,02,16,25,13.70
2006,10,02,16,26,13.70
2006,10,02,16,27,13.70
2006,10,02,16,28,13.70
2006,10,02,16,29,13.70
2006,10,02,16,30,13.70
2006,10,02,16,31,13.70
2006,10,02,16,32,13.70
2006,10,02,16,33,13.70
2006,10,02,16,34,13.70
2006,10,02,16,35,13.70
2006,10,02,16,36,13.70
2006,10,02,16,37,13.70
2006,10,02,16,38,13.70
2006,10,02,16,39,13.70
2006,10,02,16,40,13.70
2006,10,02,16,41,13.70
2006,10,02,16,42,13.80
2006,10,02,16,43,13.80
2006,10,02,16,44,13.80
2006,10,02,16,45,13.80
2006,10,02,16,46,13.80
2006,10,02,16,47,13.80
2006,10,02,16,48,13.90
2006,10,02,16,49,13.90
2006,10,02,16,50,13.90
2006,10,02,16,51,13.90
2006,10,02,16,52,14.00
2006,10,02,16,53,14.00
2006,10,02,16,54,14.00
2006,10,02,16,55,14.00
2006,10,02,16,56,14.00
2006,10,02,16,57,14.00
2006,10,02,16,58,13.90
2006,10,02,16,59,13.90
2006,10,02,17,00,13.80
2006,10,02,17,01,13.80
2006,10,02,17,02,13.70
2006,10,02,17,03,13.70
2006,10,02,17,04,13.70
2006,10,02,17,05,13.70
2006,10,02,17,06,13.70
2006,10,02,17,07,13.70
2006,10,02,17,08,13.70
2006,10,02,17,09,13.70
2006,10,02,17,10,13.70
2006,10,02,17,11,13.70
2006,10,02,17,12,13.70
2006,10,02,17,13,13.70
2006,10,02,17,14,13.70
2006,10,02,17,15,13.70
2006,10,02,17,16,13.70
2006,10,02,17,17,13.70
2006,10,02,17,18,13.70
2006,10,02,17,19,13.70
2006,10,02,17,20,13.70
2006,10,02,17,21,13.70
2006,10,02,17,22,13.70
2006,10,02,17,23,13.70
2006,10,02,17,24,13.70
2006,10,02,17,25,13.70
2006,10,02,17,26,13.70
2006,10,02,17,27,13.70
2006,10,02,17,28,13.70
2006,10,02,17,29,13.70
2006,10,02,17,30,13.70
2006,10,02,17,31,13.70
2006,10,02,17,32,13.70
2006,10,02,17,33,13.70
2006,10,02,17,34,13.60
2006,10,02,17,35,13.60
2006,10,02,17,36,13.60
2006,10,02,17,37,13.60
2006,10,02,17,38,13.60
2006,10,02,17,39,13.60
2006,10,02,17,40,13.50
2006,10,02,17,41,13.50
2006,10,02,17,42,13.50
2006,10,02,17,43,13.50
2006,10,02,17,44,13.50